AEZ2427 LIRF-LIMJ

Flight info

Callsign AEZ2427
Flight time 0h 44m
Altitude 32000
Route GILIO DCT ELB DCT BETEN/N0372F180 M729 IDONA
Aircraft A319/M-SDE3FGHIRWY/LB1

Departure

Time 2026-04-17 12:59
Airport Rome–Fiumicino Leonardo da Vinci International Airport (LIRF)

Arrival

Time 2026-04-17 13:44
Airport Genoa Cristoforo Colombo Airport (LIMJ)
Time Latitude Longitude Altitude Speed Heading
2026-04-17 12:45 41.79767 12.24819 8 ft 0 kts 250°
2026-04-17 12:52 41.79774 12.24842 15 ft 5 kts 250°
2026-04-17 12:52 41.79784 12.24884 18 ft 4 kts 256°
2026-04-17 12:53 41.79787 12.24908 18 ft 2 kts 301°
2026-04-17 12:53 41.79780 12.24919 15 ft 2 kts 334°
2026-04-17 12:53 41.79770 12.24925 15 ft 2 kts 338°
2026-04-17 12:53 41.79769 12.24926 17 ft 0 kts 338°
2026-04-17 12:55 41.79771 12.24925 14 ft 2 kts 338°
2026-04-17 12:55 41.79815 12.24901 14 ft 10 kts 338°
2026-04-17 12:55 41.79885 12.24865 16 ft 13 kts 339°
2026-04-17 12:55 41.79986 12.24816 14 ft 18 kts 340°
2026-04-17 12:56 41.80117 12.24771 14 ft 21 kts 358°
2026-04-17 12:56 41.80209 12.24904 14 ft 24 kts 84°
2026-04-17 12:56 41.80223 12.25143 14 ft 28 kts 74°
2026-04-17 12:56 41.80296 12.25395 15 ft 29 kts 69°
2026-04-17 12:57 41.80368 12.25657 16 ft 31 kts 70°
2026-04-17 12:57 41.80444 12.25936 15 ft 33 kts 70°
2026-04-17 12:57 41.80527 12.26235 16 ft 35 kts 69°
2026-04-17 12:57 41.80615 12.26545 16 ft 31 kts 69°
2026-04-17 12:58 41.80688 12.26812 14 ft 28 kts 70°
2026-04-17 12:58 41.80736 12.26985 13 ft 17 kts 69°
2026-04-17 12:58 41.80840 12.27027 13 ft 19 kts 341°
2026-04-17 12:58 41.80951 12.26933 14 ft 20 kts 273°
2026-04-17 12:59 41.80858 12.26559 17 ft 75 kts 249°
2026-04-17 12:59 41.80591 12.25599 16 ft 141 kts 250°
2026-04-17 12:59 41.80224 12.24257 532 ft 150 kts 251°
2026-04-17 12:59 41.79860 12.22974 1326 ft 148 kts 252°
2026-04-17 13:00 41.79488 12.21666 1968 ft 158 kts 252°
2026-04-17 13:00 41.79284 12.20138 2364 ft 178 kts 272°
2026-04-17 13:00 41.79258 12.18377 2732 ft 201 kts 271°
2026-04-17 13:00 41.79217 12.16379 3119 ft 227 kts 271°
2026-04-17 13:01 41.79166 12.14145 3628 ft 252 kts 270°
2026-04-17 13:01 41.79102 12.11719 4371 ft 266 kts 270°
2026-04-17 13:01 41.79033 12.09209 5334 ft 273 kts 270°
2026-04-17 13:01 41.78999 12.06634 6033 ft 278 kts 271°
2026-04-17 13:02 41.78998 12.04042 7063 ft 279 kts 272°
2026-04-17 13:02 41.79005 12.01429 8045 ft 282 kts 272°
2026-04-17 13:02 41.79011 11.98819 9017 ft 286 kts 272°
2026-04-17 13:02 41.79012 11.96145 10138 ft 289 kts 272°
2026-04-17 13:03 41.79007 11.93384 10700 ft 307 kts 272°
2026-04-17 13:03 41.79000 11.90415 11065 ft 329 kts 271°
2026-04-17 13:03 41.79017 11.87301 11739 ft 337 kts 276°
2026-04-17 13:03 41.79415 11.84201 12534 ft 340 kts 288°
2026-04-17 13:04 41.80269 11.81314 13332 ft 342 kts 299°
2026-04-17 13:04 41.81476 11.78546 14111 ft 345 kts 302°
2026-04-17 13:04 41.82707 11.75777 14807 ft 349 kts 302°
2026-04-17 13:04 41.83958 11.72959 15517 ft 353 kts 302°
2026-04-17 13:05 41.85220 11.70115 16221 ft 356 kts 302°
2026-04-17 13:05 41.86490 11.67238 16916 ft 360 kts 302°
2026-04-17 13:05 41.87770 11.64329 17614 ft 364 kts 302°
2026-04-17 13:05 41.89064 11.61389 18311 ft 368 kts 302°
2026-04-17 13:06 41.90521 11.58562 18915 ft 370 kts 312°
2026-04-17 13:06 41.92280 11.56036 19532 ft 372 kts 315°
2026-04-17 13:06 41.94079 11.53508 20156 ft 376 kts 315°
2026-04-17 13:06 41.95893 11.50955 20784 ft 379 kts 315°
2026-04-17 13:07 41.97717 11.48375 21387 ft 383 kts 315°
2026-04-17 13:07 41.99558 11.45764 21995 ft 386 kts 315°
2026-04-17 13:07 42.01411 11.43131 22597 ft 390 kts 315°
2026-04-17 13:07 42.03280 11.40472 23184 ft 393 kts 315°
2026-04-17 13:08 42.05165 11.37789 23735 ft 396 kts 315°
2026-04-17 13:08 42.07067 11.35081 24216 ft 399 kts 315°
2026-04-17 13:08 42.08975 11.32363 24712 ft 401 kts 315°
2026-04-17 13:08 42.10876 11.29654 25187 ft 403 kts 315°
2026-04-17 13:09 42.12803 11.26906 25663 ft 405 kts 315°
2026-04-17 13:09 42.14743 11.24139 26127 ft 407 kts 315°
2026-04-17 13:09 42.16690 11.21351 26589 ft 409 kts 315°
2026-04-17 13:09 42.18647 11.18550 27048 ft 411 kts 315°
2026-04-17 13:10 42.20618 11.15728 27518 ft 413 kts 315°
2026-04-17 13:10 42.22595 11.12901 27979 ft 415 kts 315°
2026-04-17 13:10 42.24577 11.10059 28433 ft 417 kts 315°
2026-04-17 13:10 42.26570 11.07192 28888 ft 419 kts 315°
2026-04-17 13:11 42.28568 11.04315 29317 ft 422 kts 315°
2026-04-17 13:11 42.30581 11.01409 29732 ft 424 kts 315°
2026-04-17 13:11 42.32599 10.98492 30133 ft 426 kts 315°
2026-04-17 13:11 42.34627 10.95560 30474 ft 428 kts 315°
2026-04-17 13:12 42.36665 10.92617 30817 ft 430 kts 315°
2026-04-17 13:12 42.40767 10.86690 31500 ft 433 kts 315°
2026-04-17 13:12 42.42830 10.83711 31855 ft 434 kts 315°
2026-04-17 13:13 42.44886 10.80734 32326 ft 432 kts 315°
2026-04-17 13:13 42.46933 10.77763 32805 ft 430 kts 315°
2026-04-17 13:13 42.48969 10.74809 33306 ft 428 kts 315°
2026-04-17 13:13 42.50996 10.71864 33779 ft 426 kts 315°
2026-04-17 13:14 42.53010 10.68928 34241 ft 425 kts 315°
2026-04-17 13:14 42.55021 10.65993 34640 ft 424 kts 314°
2026-04-17 13:14 42.57028 10.63060 34976 ft 424 kts 314°
2026-04-17 13:14 42.57680 10.62106 35025 ft 424 kts 314°
2026-04-17 13:15 42.61496 10.56550 35089 ft 418 kts 314°
2026-04-17 13:15 42.65414 10.50827 35093 ft 416 kts 314°
2026-04-17 13:16 42.69349 10.45062 35097 ft 416 kts 314°
2026-04-17 13:16 42.73457 10.39568 35099 ft 414 kts 324°
2026-04-17 13:17 42.78393 10.35583 35098 ft 413 kts 332°
2026-04-17 13:17 42.83422 10.31805 35098 ft 413 kts 332°
2026-04-17 13:18 42.85939 10.29904 34910 ft 411 kts 332°
2026-04-17 13:18 42.88440 10.28012 34223 ft 412 kts 332°
2026-04-17 13:18 42.90951 10.26110 33406 ft 413 kts 331°
2026-04-17 13:18 42.93471 10.24203 32528 ft 415 kts 331°
2026-04-17 13:19 42.95998 10.22288 31784 ft 415 kts 331°
2026-04-17 13:19 42.98517 10.20378 31177 ft 412 kts 331°
2026-04-17 13:19 43.01009 10.18483 30588 ft 409 kts 331°
2026-04-17 13:19 43.03485 10.16601 29996 ft 405 kts 330°
2026-04-17 13:20 43.05941 10.14731 29341 ft 402 kts 330°
2026-04-17 13:20 43.08376 10.12877 28712 ft 399 kts 331°
2026-04-17 13:20 43.10797 10.11034 28099 ft 396 kts 331°
2026-04-17 13:20 43.13196 10.09209 27495 ft 393 kts 331°
2026-04-17 13:21 43.15546 10.07419 26924 ft 390 kts 331°
2026-04-17 13:21 43.17907 10.05616 26357 ft 387 kts 331°
2026-04-17 13:21 43.20252 10.03821 25809 ft 385 kts 331°
2026-04-17 13:21 43.22581 10.02037 25286 ft 383 kts 331°
2026-04-17 13:22 43.24900 10.00257 24782 ft 380 kts 331°
2026-04-17 13:22 43.27201 9.98493 24302 ft 378 kts 332°
2026-04-17 13:22 43.29494 9.96740 23828 ft 376 kts 332°
2026-04-17 13:22 43.31039 9.95558 23480 ft 375 kts 332°
2026-04-17 13:23 43.33283 9.93838 22952 ft 373 kts 332°
2026-04-17 13:23 43.35567 9.92082 22434 ft 370 kts 332°
2026-04-17 13:23 43.37783 9.90374 21948 ft 368 kts 331°
2026-04-17 13:23 43.40005 9.88658 21459 ft 365 kts 331°
2026-04-17 13:24 43.42211 9.86953 20979 ft 362 kts 331°
2026-04-17 13:24 43.44402 9.85262 20493 ft 360 kts 331°
2026-04-17 13:24 43.46584 9.83579 20006 ft 358 kts 331°
2026-04-17 13:24 43.48747 9.81911 19531 ft 355 kts 331°
2026-04-17 13:25 43.50897 9.80249 19071 ft 353 kts 331°
2026-04-17 13:25 43.53032 9.78599 18610 ft 351 kts 330°
2026-04-17 13:25 43.55150 9.76959 18126 ft 349 kts 330°
2026-04-17 13:25 43.57262 9.75323 17624 ft 347 kts 330°
2026-04-17 13:26 43.59360 9.73700 17129 ft 344 kts 331°
2026-04-17 13:26 43.61442 9.72089 16654 ft 342 kts 331°
2026-04-17 13:26 43.63512 9.70482 16189 ft 340 kts 330°
2026-04-17 13:26 43.65568 9.68879 15726 ft 338 kts 330°
2026-04-17 13:27 43.67614 9.67285 15292 ft 337 kts 330°
2026-04-17 13:27 43.69649 9.65698 14859 ft 335 kts 330°
2026-04-17 13:27 43.71670 9.64121 14423 ft 333 kts 331°
2026-04-17 13:27 43.73661 9.62567 14009 ft 332 kts 331°
2026-04-17 13:28 43.75667 9.61000 13528 ft 330 kts 331°
2026-04-17 13:28 43.77659 9.59442 13048 ft 328 kts 331°
2026-04-17 13:28 43.79639 9.57894 12579 ft 326 kts 331°
2026-04-17 13:28 43.81610 9.56355 12129 ft 324 kts 331°
2026-04-17 13:29 43.83562 9.54832 11658 ft 322 kts 331°
2026-04-17 13:29 43.85511 9.53309 11224 ft 320 kts 331°
2026-04-17 13:29 43.87421 9.51810 11096 ft 308 kts 331°
2026-04-17 13:29 43.89233 9.50382 11110 ft 291 kts 331°
2026-04-17 13:30 43.90949 9.49033 11083 ft 278 kts 331°
2026-04-17 13:30 43.92603 9.47732 10931 ft 269 kts 331°
2026-04-17 13:30 43.94222 9.46460 10666 ft 266 kts 331°
2026-04-17 13:30 43.95832 9.45195 10361 ft 265 kts 331°
2026-04-17 13:31 43.97429 9.43933 10053 ft 264 kts 330°
2026-04-17 13:31 43.98920 9.42455 9703 ft 263 kts 320°
2026-04-17 13:31 44.00231 9.40688 9351 ft 263 kts 315°
2026-04-17 13:31 44.01519 9.38894 8999 ft 261 kts 316°
2026-04-17 13:32 44.02803 9.37115 8645 ft 260 kts 316°
2026-04-17 13:32 44.04083 9.35343 8290 ft 259 kts 316°
2026-04-17 13:32 44.05351 9.33588 7936 ft 257 kts 316°
2026-04-17 13:32 44.06618 9.31830 7572 ft 256 kts 316°
2026-04-17 13:33 44.07878 9.30080 7205 ft 255 kts 316°
2026-04-17 13:33 44.09131 9.28340 6850 ft 254 kts 316°
2026-04-17 13:33 44.10378 9.26607 6492 ft 253 kts 316°
2026-04-17 13:33 44.11622 9.24880 6119 ft 252 kts 316°
2026-04-17 13:34 44.12857 9.23161 5751 ft 250 kts 316°
2026-04-17 13:34 44.14085 9.21451 5383 ft 249 kts 316°
2026-04-17 13:34 44.15307 9.19750 5016 ft 248 kts 316°
2026-04-17 13:34 44.16660 9.18291 4645 ft 245 kts 331°
2026-04-17 13:35 44.18217 9.17381 4500 ft 242 kts 345°
2026-04-17 13:35 44.19883 9.17027 4507 ft 244 kts 359°
2026-04-17 13:35 44.21535 9.16971 4506 ft 229 kts 359°
2026-04-17 13:35 44.23052 9.16912 4504 ft 212 kts 359°
2026-04-17 13:36 44.24482 9.16853 4508 ft 203 kts 359°
2026-04-17 13:36 44.25887 9.16797 4509 ft 201 kts 359°
2026-04-17 13:36 44.27287 9.16745 4511 ft 201 kts 359°
2026-04-17 13:36 44.28675 9.16695 4337 ft 199 kts 359°
2026-04-17 13:37 44.30059 9.16644 4045 ft 199 kts 358°
2026-04-17 13:37 44.31440 9.16591 3802 ft 196 kts 358°
2026-04-17 13:37 44.32778 9.16394 3643 ft 191 kts 342°
2026-04-17 13:37 44.33918 9.15502 3504 ft 188 kts 319°
2026-04-17 13:38 44.34540 9.13952 3420 ft 188 kts 281°
2026-04-17 13:38 44.34772 9.12160 3403 ft 186 kts 289°
2026-04-17 13:38 44.35163 9.10522 3444 ft 171 kts 289°
2026-04-17 13:38 44.35531 9.08970 3410 ft 167 kts 289°
2026-04-17 13:39 44.35889 9.07435 3284 ft 165 kts 289°
2026-04-17 13:39 44.36238 9.05931 3094 ft 161 kts 290°
2026-04-17 13:39 44.36575 9.04467 2890 ft 154 kts 289°
2026-04-17 13:39 44.36895 9.03078 2687 ft 145 kts 290°
2026-04-17 13:40 44.37191 9.01794 2497 ft 133 kts 290°
2026-04-17 13:40 44.37466 9.00598 2312 ft 127 kts 290°
2026-04-17 13:40 44.37734 8.99432 2142 ft 126 kts 290°
2026-04-17 13:40 44.38002 8.98269 1973 ft 125 kts 291°
2026-04-17 13:41 44.38267 8.97114 1790 ft 126 kts 290°
2026-04-17 13:41 44.38536 8.95943 1620 ft 126 kts 289°
2026-04-17 13:41 44.38806 8.94772 1438 ft 127 kts 289°
2026-04-17 13:41 44.39076 8.93595 1262 ft 127 kts 288°
2026-04-17 13:42 44.39346 8.92414 1078 ft 128 kts 287°
2026-04-17 13:42 44.39614 8.91242 903 ft 128 kts 287°
2026-04-17 13:42 44.39869 8.90125 737 ft 127 kts 287°
2026-04-17 13:42 44.40142 8.88935 561 ft 126 kts 287°
2026-04-17 13:43 44.40405 8.87784 383 ft 125 kts 286°
2026-04-17 13:43 44.40668 8.86630 214 ft 124 kts 285°
2026-04-17 13:43 44.40931 8.85480 39 ft 123 kts 285°
2026-04-17 13:43 44.41139 8.84460 20 ft 89 kts 285°
2026-04-17 13:44 44.41250 8.83911 19 ft 34 kts 289°
2026-04-17 13:44 44.41366 8.83752 19 ft 9 kts
2026-04-17 13:44 44.41414 8.83793 19 ft 9 kts 68°
2026-04-17 13:44 44.41416 8.83878 19 ft 9 kts 96°
2026-04-17 13:45 44.41400 8.83971 19 ft 11 kts 108°
2026-04-17 13:45 44.41375 8.84073 19 ft 12 kts 109°
2026-04-17 13:45 44.41352 8.84188 21 ft 13 kts 105°
2026-04-17 13:45 44.41328 8.84312 20 ft 13 kts 105°
2026-04-17 13:46 44.41332 8.84433 21 ft 13 kts 49°
2026-04-17 13:46 44.41390 8.84538 20 ft 14 kts 52°
2026-04-17 13:46 44.41411 8.84665 21 ft 15 kts 105°
2026-04-17 13:46 44.41376 8.84802 20 ft 15 kts 106°
2026-04-17 13:47 44.41355 8.84922 23 ft 12 kts 102°
2026-04-17 13:47 44.41361 8.85018 20 ft 9 kts 32°
2026-04-17 13:47 44.41403 8.85035 20 ft 0 kts 15°